• In Deutschland
  • Länderverzeichnis
  • Für 7 Tage
  • Wassertemperatur
  • Satellitenkarten
  • Wetterkarte
  • Widgets
  • user-avatar
    Anmelden

    Stündliche Wetter Pfungstadt

    Heute, 20 Juli, Freitag

    Zeit Temperatur Niederschläge Wind Luftdruck Luftfeuchtigkeit
    00:00 +21°C° 0 mm 1 m/S 752 mmHg 59%
    01:00 +21°C° 0 mm 1 m/S 752 mmHg 62%
    02:00 +20°C° 0 mm 1 m/S 752 mmHg 64%
    03:00 +20°C° 0 mm 1 m/S 751 mmHg 66%
    04:00 +19°C° 0 mm 1 m/S 751 mmHg 67%
    05:00 +20°C° 0 mm 1 m/S 751 mmHg 66%
    06:00 +21°C° 0 mm 1 m/S 751 mmHg 65%
    07:00 +22°C° 0 mm 1 m/S 751 mmHg 63%
    08:00 +24°C° 0 mm 1 m/S 751 mmHg 58%
    09:00 +26°C° 0 mm 1 m/S 751 mmHg 52%
    10:00 +28°C° 0 mm 1 m/S 751 mmHg 47%
    11:00 +29°C° 0 mm 1 m/S 751 mmHg 43%
    12:00 +30°C° 0 mm 1 m/S 750 mmHg 38%
    13:00 +32°C° 0 mm 1 m/S 750 mmHg 34%
    14:00 +32°C° 0 mm 1 m/S 750 mmHg 34%
    15:00 +30°C° 0 mm 0 m/S 749 mmHg 33%
    16:00 +31°C° 0 mm 0 m/S 749 mmHg 32%
    17:00 +29°C° 0 mm 0 m/S 749 mmHg 36%
    18:00 +28°C° 0 mm 0 m/S 748 mmHg 41%
    19:00 +27°C° 0 mm 0 m/S 748 mmHg 45%
    20:00 +27°C° 0,2 mm 1 m/S 748 mmHg 49%
    21:00 +26°C° 0,2 mm 1 m/S 748 mmHg 54%
    22:00 +24°C° 0,2 mm 1 m/S 748 mmHg 58%
    23:00 +24°C° 0,3 mm 1 m/S 748 mmHg 61%

    Morgen, 21 Juli, Samstag

    Zeit Temperatur Niederschläge Wind Luftdruck Luftfeuchtigkeit
    00:00 +23°C° 0,3 mm 1 m/S 748 mmHg 64%
    01:00 +23°C° 0,3 mm 1 m/S 748 mmHg 67%
    02:00 +22°C° 0,3 mm 1 m/S 748 mmHg 69%
    03:00 +22°C° 0,3 mm 1 m/S 748 mmHg 72%
    04:00 +21°C° 0,3 mm 1 m/S 748 mmHg 74%
    05:00 +22°C° 0,1 mm 1 m/S 748 mmHg 74%
    06:00 +23°C° 0,1 mm 1 m/S 748 mmHg 73%
    07:00 +23°C° 0,1 mm 1 m/S 748 mmHg 73%
    08:00 +25°C° 0,2 mm 1 m/S 748 mmHg 67%
    09:00 +27°C° 0,2 mm 1 m/S 748 mmHg 62%
    10:00 +28°C° 0,2 mm 1 m/S 748 mmHg 56%
    11:00 +29°C° 0,4 mm 1 m/S 748 mmHg 53%
    12:00 +30°C° 0,4 mm 1 m/S 748 mmHg 51%
    13:00 +30°C° 0,4 mm 1 m/S 748 mmHg 48%
    14:00 +30°C° 0,5 mm 1 m/S 748 mmHg 49%
    15:00 +30°C° 0,5 mm 1 m/S 748 mmHg 50%
    16:00 +30°C° 0,5 mm 1 m/S 748 mmHg 52%
    17:00 +28°C° 0,4 mm 2 m/S 748 mmHg 57%
    18:00 +27°C° 0,4 mm 2 m/S 748 mmHg 62%
    19:00 +26°C° 0,4 mm 2 m/S 748 mmHg 68%
    20:00 +25°C° 0,4 mm 2 m/S 748 mmHg 72%
    21:00 +24°C° 0,4 mm 2 m/S 749 mmHg 75%
    22:00 +23°C° 0,4 mm 2 m/S 749 mmHg 79%
    23:00 +22°C° 0,3 mm 1 m/S 749 mmHg 81%

    übermorgen, 22 Juli, Sonntag

    Zeit Temperatur Niederschläge Wind Luftdruck Luftfeuchtigkeit
    00:00 +22°C° 0,3 mm 1 m/S 749 mmHg 83%
    01:00 +21°C° 0,3 mm 1 m/S 749 mmHg 84%
    02:00 +21°C° 0,1 mm 1 m/S 749 mmHg 85%
    03:00 +21°C° 0,1 mm 1 m/S 749 mmHg 86%
    04:00 +20°C° 0,1 mm 1 m/S 749 mmHg 87%
    05:00 +21°C° 0,2 mm 1 m/S 749 mmHg 85%
    06:00 +22°C° 0,2 mm 1 m/S 749 mmHg 83%
    07:00 +22°C° 0,2 mm 1 m/S 749 mmHg 81%
    08:00 +24°C° 0,3 mm 1 m/S 749 mmHg 75%
    09:00 +26°C° 0,3 mm 1 m/S 749 mmHg 70%
    10:00 +27°C° 0,3 mm 1 m/S 749 mmHg 64%
    11:00 +28°C° 0,7 mm 2 m/S 749 mmHg 61%
    12:00 +29°C° 0,7 mm 2 m/S 749 mmHg 59%
    13:00 +29°C° 0,7 mm 2 m/S 749 mmHg 56%
    14:00 +29°C° 0,5 mm 2 m/S 749 mmHg 56%
    15:00 +30°C° 0,5 mm 2 m/S 748 mmHg 56%
    16:00 +30°C° 0,5 mm 3 m/S 748 mmHg 55%
    17:00 +29°C° 0,3 mm 2 m/S 748 mmHg 59%
    18:00 +28°C° 0,3 mm 2 m/S 749 mmHg 62%
    19:00 +27°C° 0,3 mm 2 m/S 749 mmHg 65%
    20:00 +26°C° 0,2 mm 2 m/S 749 mmHg 69%
    21:00 +24°C° 0,2 mm 2 m/S 750 mmHg 72%
    22:00 +23°C° 0,2 mm 1 m/S 750 mmHg 75%
    23:00 +23°C° 0,1 mm 1 m/S 750 mmHg 77%

    23 Juli, Montag

    Zeit Temperatur Niederschläge Wind Luftdruck Luftfeuchtigkeit
    00:00 +22°C° 0,1 mm 1 m/S 750 mmHg 78%
    01:00 +22°C° 0,1 mm 1 m/S 750 mmHg 80%
    02:00 +21°C° 0 mm 1 m/S 750 mmHg 81%
    03:00 +21°C° 0 mm 1 m/S 750 mmHg 82%
    04:00 +20°C° 0 mm 1 m/S 751 mmHg 83%
    05:00 +21°C° 0 mm 1 m/S 751 mmHg 81%
    06:00 +21°C° 0 mm 1 m/S 751 mmHg 79%
    07:00 +22°C° 0 mm 1 m/S 751 mmHg 76%
    08:00 +24°C° 0 mm 2 m/S 751 mmHg 69%
    09:00 +25°C° 0 mm 2 m/S 751 mmHg 61%
    10:00 +27°C° 0 mm 2 m/S 752 mmHg 53%
    11:00 +28°C° 0,2 mm 2 m/S 751 mmHg 50%
    12:00 +29°C° 0,2 mm 2 m/S 751 mmHg 47%
    13:00 +30°C° 0,2 mm 2 m/S 751 mmHg 44%
    14:00 +30°C° 0,1 mm 2 m/S 751 mmHg 43%
    15:00 +31°C° 0,1 mm 2 m/S 751 mmHg 42%
    16:00 +31°C° 0,1 mm 2 m/S 750 mmHg 41%
    17:00 +30°C° 0 mm 1 m/S 750 mmHg 45%
    18:00 +29°C° 0 mm 1 m/S 750 mmHg 48%
    19:00 +28°C° 0 mm 1 m/S 750 mmHg 52%
    20:00 +27°C° 0 mm 1 m/S 751 mmHg 55%
    21:00 +25°C° 0 mm 1 m/S 751 mmHg 58%
    22:00 +24°C° 0 mm 1 m/S 751 mmHg 61%
    23:00 +23°C° 0 mm 1 m/S 751 mmHg 63%

    24 Juli, Dienstag

    Zeit Temperatur Niederschläge Wind Luftdruck Luftfeuchtigkeit
    00:00 +22°C° 0 mm 1 m/S 751 mmHg 66%
    01:00 +22°C° 0 mm 1 m/S 751 mmHg 69%
    02:00 +21°C° 0 mm 1 m/S 750 mmHg 71%
    03:00 +21°C° 0 mm 1 m/S 750 mmHg 73%
    04:00 +20°C° 0 mm 1 m/S 750 mmHg 76%
    05:00 +21°C° 0 mm 1 m/S 750 mmHg 74%
    06:00 +22°C° 0 mm 1 m/S 750 mmHg 71%
    07:00 +23°C° 0 mm 1 m/S 750 mmHg 69%
    08:00 +25°C° 0 mm 1 m/S 750 mmHg 63%
    09:00 +27°C° 0 mm 1 m/S 750 mmHg 58%
    10:00 +29°C° 0 mm 1 m/S 750 mmHg 52%
    11:00 +30°C° 0 mm 1 m/S 749 mmHg 48%
    12:00 +32°C° 0 mm 1 m/S 749 mmHg 43%
    13:00 +33°C° 0 mm 1 m/S 749 mmHg 39%
    14:00 +33°C° 0 mm 1 m/S 749 mmHg 40%
    15:00 +32°C° 0 mm 1 m/S 748 mmHg 40%
    16:00 +32°C° 0 mm 1 m/S 748 mmHg 41%
    17:00 +31°C° 0 mm 1 m/S 748 mmHg 45%
    18:00 +30°C° 0 mm 1 m/S 748 mmHg 48%
    19:00 +29°C° 0 mm 1 m/S 748 mmHg 52%
    20:00 +28°C° 0 mm 1 m/S 748 mmHg 54%
    21:00 +27°C° 0 mm 1 m/S 749 mmHg 56%
    22:00 +25°C° 0 mm 1 m/S 749 mmHg 58%
    23:00 +25°C° 0 mm 1 m/S 749 mmHg 60%

    25 Juli, Mittwoch

    Zeit Temperatur Niederschläge Wind Luftdruck Luftfeuchtigkeit
    00:00 +22°C° 0 mm 0 m/S 749 mmHg 62%
    01:00 +22°C° 0 mm 0 m/S 749 mmHg 64%
    02:00 +21°C° 0 mm 0 m/S 749 mmHg 66%
    03:00 +21°C° 0 mm 0 m/S 749 mmHg 67%
    04:00 +20°C° 0 mm 0 m/S 749 mmHg 69%
    05:00 +21°C° 0,1 mm 0 m/S 749 mmHg 68%
    06:00 +22°C° 0,1 mm 0 m/S 750 mmHg 67%
    07:00 +23°C° 0,1 mm 0 m/S 750 mmHg 66%
    08:00 +24°C° 0,1 mm 0 m/S 750 mmHg 64%
    09:00 +27°C° 0,1 mm 1 m/S 750 mmHg 62%
    10:00 +28°C° 0,1 mm 1 m/S 750 mmHg 60%
    11:00 +29°C° 0,2 mm 1 m/S 750 mmHg 56%
    12:00 +30°C° 0,2 mm 1 m/S 750 mmHg 52%
    13:00 +31°C° 0,2 mm 1 m/S 750 mmHg 48%
    14:00 +31°C° 0,1 mm 1 m/S 750 mmHg 46%
    15:00 +32°C° 0,1 mm 1 m/S 750 mmHg 45%
    16:00 +32°C° 0,1 mm 1 m/S 750 mmHg 43%
    17:00 +31°C° 0,2 mm 1 m/S 750 mmHg 48%
    18:00 +30°C° 0,2 mm 1 m/S 750 mmHg 52%
    19:00 +29°C° 0,2 mm 1 m/S 750 mmHg 57%
    20:00 +27°C° 0,6 mm 1 m/S 750 mmHg 62%
    21:00 +26°C° 0,6 mm 1 m/S 751 mmHg 67%
    22:00 +25°C° 0,6 mm 1 m/S 751 mmHg 72%
    23:00 +24°C° 0,4 mm 1 m/S 751 mmHg 74%
    Mehr zeigen